Location: Trois-Rivi�res
(46.3500°N, 72.5500°W)
Time: 21:26:24
(UTC-04:00)

Vanguard 2 - Visible Passes

Search period start: 20 October 2017 00:00
Search period end: 30 October 2017 00:00
Orbit: 554 x 2939 km, 32.9° (Epoch: 19 October)

Date Brightness Start Highest point End Pass type
(mag) Time Alt. Az. Time Alt. Az. Time Alt. Az.
22 Oct 12.1 05:18:45 10° SSE 05:24:24 12° SE 05:29:39 10° ESE visible
23 Oct 11.9 05:32:30 10° S 05:42:10 18° SE 05:50:39 10° ESE visible
24 Oct 11.8 05:47:57 10° SSW 05:59:58 23° SSE 06:10:08 10° ESE visible
25 Oct 12.1 04:04:40 10° SSE 04:08:05 11° SE 04:11:26 10° SE visible
25 Oct 11.6 06:04:13 10° SSW 06:17:48 29° SSE 06:29:00 10° E visible
26 Oct 11.9 04:16:45 10° S 04:25:41 16° SE 04:34:09 10° ESE visible
26 Oct 11.4 06:20:58 10° SSW 06:35:39 34° SSE 06:47:32 10° E visible
27 Oct 11.7 04:31:44 10° S 04:43:19 22° SE 04:54:06 10° ESE visible
27 Oct 11.2 06:38:06 10° SW 06:53:33 39° SSE 07:05:50 10° E visible
28 Oct 11.5 04:47:42 10° SSW 05:01:00 27° SSE 05:13:14 10° E visible
29 Oct 11.8 03:02:33 10° SSE 03:09:11 13° SE 03:15:52 10° ESE visible
29 Oct 11.4 05:04:16 10° SSW 05:18:43 33° SSE 05:31:55 10° E visible
